"2009-09-21 00:00:00",1258848,12.73,328.9,2.811,0.576,18.22,107.5502,18.61,19.57,24.5,0,110.7,13.29,19.42,290.9
"2009-09-21 00:00:30",1258849,12.41,332,2.707,0.462,18.2,107.5596,18.63,19.56,24.53,0,110.7,13.29,19.45,294.0
"2009-09-21 00:01:00",1258850,11.6,327.2,5.079,0.647,18.09,107.5629,18.64,19.58,24.76,0,110.7,13.29,19.46,289.2
"2009-09-21 00:01:30",1258851,10.99,327.9,2.927,0.545,18.18,107.5625,18.64,19.58,24.79,0,110.7,13.29,19.45,289.9
"2009-09-21 00:02:00",1258852,10.48,318.3,7.186,0.792,18.25,107.5629,18.64,19.59,24.4,0,110.7,13.29,19.46,280.3
"2009-09-21 00:02:30",1258853,9.46,306.7,7.094,0.619,18.27,107.5647,18.64,19.61,24.77,0,110.7,13.29,19.46,268.7
"2009-09-21 00:03:00",1258854,7.344,299.7,6.917,1.107,18.43,107.5666,18.65,19.6,25.59,0,110.7,13.29,19.47,261.7
"2009-09-21 00:03:30",1258855,4.672,312.5,3.928,0.892,18.61,107.5902,18.71,19.63,24.88,0,110.7,13.29,19.53,274.5
"2009-09-21 00:04:00",1258856,4.111,289.1,23.1,0.922,18.51,107.5997,18.73,19.63,24.73,0,110.7,13.29,19.55,251.1
"2009-09-21 00:04:30",1258857,4.323,262.2,10.34,0.526,18.41,107.6012,18.74,19.65,25.23,0,110.7,13.29,19.55,224.2
"2009-09-21 00:05:00",1258858,5.248,272.4,5.936,0.36,18.34,107.6027,18.74,19.66,25.77,0,110.7,13.29,19.56,234.4
"2009-09-21 00:05:30",1258859,3.901,291,16.65,0.898,18.29,107.6036,18.74,19.67,25.47,0,110.7,13.29,19.56,253.0
"2009-09-21 00:06:00",1258860,6.041,326.5,8.12,1.134,18.34,107.6131,18.77,19.67,24.36,0,110.7,13.29,19.58,288.5
"2009-09-21 00:06:30",1258861,7.217,343.5,4.665,0.303,18.31,107.6123,18.77,19.67,23.29,0,110.7,13.29,19.58,305.5
"2009-09-21 00:07:00",1258862,6.45,348.5,5.933,1.002,18.2,107.6086,18.76,19.68,22.85,0,110.7,13.29,19.57,310.5
"2009-09-21 00:07:30",1258863,6.222,344.3,8.38,1.158,18.07,107.6073,18.75,19.68,23.48,0,110.7,13.29,19.57,306.3
"2009-09-21 00:08:00",1258864,6.624,334.6,7.84,0.799,17.95,107.6067,18.75,19.69,23.08,0,110.7,13.29,19.57,296.6
"2009-09-21 00:08:30",1258865,7.776,335.5,7.143,1.392,17.78,107.6042,18.74,19.67,23.44,0,110.7,13.29,19.56,297.5
"2009-09-21 00:09:00",1258866,8.85,333,1.968,0.281,17.69,107.6039,18.74,19.68,23.69,0,110.7,13.29,19.56,295.0
"2009-09-21 00:09:30",1258867,9.07,334.2,2.049,0.268,17.98,107.603,18.74,19.67,23.5,0,110.7,13.29,19.56,296.2
"2009-09-21 00:10:00",1258868,9.5,335.5,2.575,0.203,17.97,107.6036,18.74,19.68,23.12,0,110.7,13.29,19.56,297.5
"2009-09-21 00:10:30",1258869,9.06,334.9,0.916,0.219,17.87,107.6033,18.74,19.68,23.34,0,110.7,13.29,19.56,296.9
"2009-09-21 00:11:00",1258870,9.1,332.4,1.171,0.128,17.69,107.6033,18.74,19.69,23.49,0,110.7,13.29,19.56,294.4
"2009-09-21 00:11:30",1258871,9.11,328.8,1.313,0.152,17.79,107.603,18.74,19.68,23.69,0,110.7,13.29,19.56,290.8
"2009-09-21 00:12:00",1258872,8.96,329.1,1.635,0.181,17.98,107.6024,18.74,19.69,23.63,0,110.7,13.29,19.56,291.1
"2009-09-21 00:12:30",1258873,8.43,330,1.825,0.36,17.77,107.6024,18.74,19.69,23.07,0,110.7,13.29,19.56,292.0
"2009-09-21 00:13:00",1258874,9.14,331.9,1.564,0.481,17.56,107.6027,18.74,19.69,23.86,0,110.7,13.29,19.56,293.9
"2009-09-21 00:13:30",1258875,7.857,332.5,0.89,0.209,17.76,107.603,18.74,19.7,23.9,0,110.7,13.29,19.56,294.5
"2009-09-21 00:14:00",1258876,7.25,330.4,0.95,0.166,17.77,107.603,18.74,19.69,23.83,0,110.6,13.29,19.56,292.4
"2009-09-21 00:14:30",1258877,7.165,328.9,1.903,0.127,17.66,107.6027,18.74,19.7,23.78,0,110.6,13.29,19.56,290.9
"2009-09-21 00:15:00",1258878,7.42,326.9,1.158,0.387,17.47,107.6036,18.74,19.68,23.97,0,110.6,13.29,19.56,288.9
"2009-09-21 00:15:30",1258879,7.469,325.6,2.13,0.233,17.47,107.603,18.74,19.7,24.01,0,110.6,13.29,19.56,287.6
"2009-09-21 00:16:00",1258880,7.099,324.8,1.064,0.112,17.44,107.6036,18.74,19.68,23.85,0,110.6,13.29,19.56,286.8
"2009-09-21 00:16:30",1258881,7.66,326,1.085,0.409,17.43,107.6024,18.74,19.69,23.87,0,110.6,13.29,19.56,288.0
"2009-09-21 00:17:00",1258882,8.05,327,2.667,0.28,17.41,107.6027,18.74,19.68,23.63,0,110.6,13.29,19.56,289.0
"2009-09-21 00:17:30",1258883,8.19,325,4.028,0.305,17.34,107.6025,18.74,19.69,23.8,0,110.6,13.29,19.56,287.0
"2009-09-21 00:18:00",1258884,8.05,322.9,3.616,0.643,17.47,107.6024,18.74,19.68,24.26,0,110.6,13.29,19.56,284.9
"2009-09-21 00:18:30",1258885,9.18,320.8,1.407,0.199,17.26,107.6005,18.73,19.69,24.47,0,110.6,13.29,19.55,282.8
"2009-09-21 00:19:00",1258886,8.89,322.6,2.743,0.386,17.36,107.5997,18.73,19.68,24.82,0,110.6,13.29,19.55,284.6
"2009-09-21 00:19:30",1258887,8.6,323.5,1.559,0.313,17.45,107.5951,18.72,19.69,24.68,0,110.6,13.29,19.54,285.5
"2009-09-21 00:20:00",1258888,8.8,323.5,1.667,0.209,17.5,107.5917,18.71,19.7,24.78,0,110.6,13.29,19.53,285.5
"2009-09-21 00:20:30",1258889,8.73,323.3,1.966,0.291,17.49,107.579,18.68,19.66,24.71,0,110.6,13.29,19.50,285.3
"2009-09-21 00:21:00",1258890,8.42,325,2.23,0.227,17.6,107.5695,18.66,19.69,24.54,0,110.6,13.29,19.47,287.0
"2009-09-21 00:21:30",1258891,7.905,323.8,3.26,0.528,17.5,107.5677,18.65,19.66,24.47,0,110.6,13.29,19.47,285.8
"2009-09-21 00:22:00",1258892,8.16,330,1.657,0.355,17.67,107.5695,18.66,19.67,24.54,0,110.6,13.28,19.47,292.0
"2009-09-21 00:22:30",1258893,7.461,329.6,3.792,0.227,17.73,107.5692,18.65,19.66,24.06,0,110.6,13.28,19.47,291.6
"2009-09-21 00:23:00",1258894,7.116,329,2.765,0.192,17.78,107.5671,18.65,19.64,23.88,0,110.6,13.28,19.47,291.0
"2009-09-21 00:23:30",1258895,6.938,324.9,3.403,0.476,17.64,107.5618,18.64,19.63,23.98,0,110.6,13.28,19.45,286.9
"2009-09-21 00:24:00",1258896,7.108,317.2,3.422,0.418,17.47,107.5486,18.6,19.62,24.27,0,110.6,13.28,19.42,279.2
"2009-09-21 00:24:30",1258897,8.41,311.5,4.564,0.646,17.19,107.535,18.57,19.61,24.79,0,110.7,13.28,19.38,273.5
"2009-09-21 00:25:00",1258898,10,308.7,1.219,0.409,16.91,107.5339,18.56,19.59,25.63,0,110.7,13.28,19.38,270.7
"2009-09-21 00:25:30",1258899,10.75,311.1,1.036,0.144,16.99,107.5324,18.56,19.59,25.84,0,110.7,13.28,19.38,273.1
"2009-09-21 00:26:00",1258900,10.78,310,1.136,0.142,17.14,107.5336,18.56,19.57,25.68,0,110.6,13.28,19.38,272.0
"2009-09-21 00:26:30",1258901,10.85,310.1,1.204,0.106,17.1,107.533,18.56,19.56,25.5,0,110.6,13.28,19.38,272.1
"2009-09-21 00:27:00",1258902,10.77,308,0.876,0.157,17.1,107.5295,18.55,19.55,25.52,0,110.7,13.28,19.37,270.0
"2009-09-21 00:27:30",1258903,10.75,308,0.786,0.152,17.05,107.522,18.53,19.53,25.58,0,110.7,13.29,19.35,270.0
"2009-09-21 00:28:00",1258904,10.57,306.2,0.953,0.196,17.1,107.5072,18.5,19.52,25.57,0,110.7,13.29,19.31,268.2
"2009-09-21 00:28:30",1258905,10.33,305.5,1.583,0.156,17.17,107.4962,18.47,19.52,25.56,0,110.7,13.29,19.28,267.5
"2009-09-21 00:29:00",1258906,10.07,303.7,1.36,0.233,17.17,107.4971,18.47,19.5,25.43,0,110.7,13.29,19.29,265.7
"2009-09-21 00:29:30",1258907,9.68,304,1.587,0.154,17.01,107.495,18.46,19.49,25.75,0,110.7,13.29,19.28,266.0
"2009-09-21 00:30:00",1258908,9.3,302.9,0.49,0.258,17.01,107.4781,18.42,19.48,25.99,0,110.7,13.29,19.24,264.9
"2009-09-21 00:30:30",1258909,9.04,301.8,1.065,0.242,17.03,107.4621,18.38,19.47,26.03,0,110.7,13.29,19.20,263.8
"2009-09-21 00:31:00",1258910,9.15,301.6,0.846,0.151,17.07,107.4591,18.37,19.45,25.93,0,110.7,13.29,19.19,263.6
"2009-09-21 00:31:30",1258911,8.86,299.3,1.222,0.195,17.02,107.4582,18.37,19.43,25.82,0,110.7,13.29,19.19,261.3
"2009-09-21 00:32:00",1258912,8.72,300.8,0.993,0.095,17.09,107.4428,18.33,19.41,25.69,0,110.7,13.29,19.15,262.8
"2009-09-21 00:32:30",1258913,8.48,298.8,1.773,0.187,17.04,107.4239,18.28,19.38,25.79,0,110.7,13.29,19.10,260.8
"2009-09-21 00:33:00",1258914,8.04,298.5,2.711,0.161,16.98,107.4228,18.28,19.37,25.92,0,110.7,13.29,19.10,260.5
"2009-09-21 00:33:30",1258915,8.01,302.7,2.172,0.221,16.95,107.4201,18.27,19.34,26.07,0,110.7,13.29,19.09,264.7
"2009-09-21 00:34:00",1258916,7.706,303.7,4.064,0.221,16.94,107.4151,18.26,19.32,26.19,0,110.7,13.29,19.08,265.7
"2009-09-21 00:34:30",1258917,8.2,301.7,2.195,0.654,17.02,107.39,18.2,19.29,26.16,0,110.7,13.29,19.01,263.7
"2009-09-21 00:35:00",1258918,7.635,298.2,2.538,0.243,17,107.3824,18.18,19.28,26.16,0,110.7,13.28,18.99,260.2
"2009-09-21 00:35:30",1258919,7.702,303.4,1.669,0.281,16.98,107.3809,18.17,19.26,26.23,0,110.7,13.28,18.99,265.4
"2009-09-21 00:36:00",1258920,7.45,302.9,1.645,0.239,16.93,107.3794,18.17,19.24,26.36,0,110.7,13.28,18.98,264.9
"2009-09-21 00:36:30",1258921,8.24,305.2,1.953,0.332,16.94,107.3754,18.16,19.23,26.47,0,110.7,13.28,18.97,267.2
"2009-09-21 00:37:00",1258922,8.35,306.1,1.584,0.169,16.94,107.3672,18.14,19.21,26.59,0,110.7,13.29,18.95,268.1
"2009-09-21 00:37:30",1258923,8.01,306.8,2.24,0.303,16.95,107.3469,18.08,19.19,26.67,0,110.7,13.29,18.90,268.8
"2009-09-21 00:38:00",1258924,8.08,307.4,2.394,0.307,16.9,107.3383,18.06,19.18,26.73,0,110.7,13.28,18.88,269.4
"2009-09-21 00:38:30",1258925,8.3,308.6,1.36,0.449,16.91,107.3383,18.06,19.17,26.86,0,110.7,13.28,18.88,270.6
"2009-09-21 00:39:00",1258926,8.76,309.9,2.928,0.247,16.95,107.3359,18.06,19.15,26.9,0,110.7,13.28,18.87,271.9
"2009-09-21 00:39:30",1258927,8.6,308.7,2.955,0.553,16.91,107.335,18.05,19.15,27.1,0,110.7,13.28,18.87,270.7
"2009-09-21 00:40:00",1258928,8.88,311.1,2.078,0.783,16.93,107.3335,18.05,19.13,27.19,0,110.7,13.27,18.87,273.1
"2009-09-21 00:40:30",1258929,9.14,311.1,2.982,0.878,16.98,107.3289,18.04,19.13,27.1,0,110.7,13.27,18.85,273.1
"2009-09-21 00:41:00",1258930,8.18,308.6,3.231,0.653,16.97,107.309,17.99,19.12,27.32,0,110.7,13.27,18.80,270.6
"2009-09-21 00:41:30",1258931,9.19,308.3,1.797,0.392,17.02,107.3,17.96,19.1,27.3,0,110.7,13.27,18.78,270.3
"2009-09-21 00:42:00",1258932,9.44,311,2.66,0.331,17.07,107.3009,17.97,19.07,27.34,0,110.7,13.27,18.78,273.0
"2009-09-21 00:42:30",1258933,9.53,309.3,1.492,0.342,17.07,107.2985,17.96,19.07,27.37,0,110.7,13.27,18.78,271.3
"2009-09-21 00:43:00",1258934,9.5,306.6,1.829,0.383,17.01,107.298,17.96,19.07,27.5,0,110.7,13.27,18.77,268.6
"2009-09-21 00:43:30",1258935,9.55,308.5,1.925,0.341,17.08,107.2879,17.93,19.04,27.59,0,110.7,13.27,18.75,270.5
"2009-09-21 00:44:00",1258936,9.68,307.5,1.222,0.177,17.12,107.2688,17.88,19.03,27.56,0,110.7,13.28,18.70,269.5
"2009-09-21 00:44:30",1258937,9.39,307.9,1.609,0.253,17.21,107.2653,17.88,19.01,27.44,0,110.7,13.28,18.69,269.9
"2009-09-21 00:45:00",1258938,9.26,308,0.945,0.159,17.3,107.2668,17.88,18.99,27.23,0,110.7,13.28,18.69,270.0
"2009-09-21 00:45:30",1258939,9.06,308.4,1.552,0.2,17.45,107.2647,17.87,18.98,27.06,0,110.7,13.28,18.69,270.4
"2009-09-21 00:46:00",1258940,9.66,309.3,0.86,0.37,17.22,107.2616,17.87,18.97,27.16,0,110.7,13.28,18.68,271.3
"2009-09-21 00:46:30",1258941,9.55,308.8,0.728,0.192,17.2,107.2476,17.83,18.95,27.77,0,110.7,13.28,18.64,270.8
"2009-09-21 00:47:00",1258942,9.38,309.7,1.25,0.556,17.4,107.2333,17.79,18.94,27.44,0,110.7,13.28,18.61,271.7
"2009-09-21 00:47:30",1258943,9.66,309.9,1.848,0.353,17.2,107.2306,17.79,18.92,27.65,0,110.7,13.28,18.60,271.9
"2009-09-21 00:48:00",1258944,9.66,309.7,1.54,0.235,17.2,107.2321,17.79,18.92,28.08,0,110.7,13.28,18.60,271.7
"2009-09-21 00:48:30",1258945,10,308.5,0.795,0.161,17.21,107.2318,17.79,18.9,28,0,110.7,13.28,18.60,270.5
"2009-09-21 00:49:00",1258946,10.07,309.5,0.615,0.147,17.2,107.2257,17.77,18.88,28.18,0,110.7,13.28,18.59,271.5
"2009-09-21 00:49:30",1258947,9.67,309.2,0.897,0.187,17.22,107.2129,17.74,18.88,28.3,0,110.7,13.28,18.55,271.2
"2009-09-21 00:50:00",1258948,9.55,309.6,0.808,0.183,17.24,107.2048,17.72,18.86,28.17,0,110.7,13.28,18.53,271.6
"2009-09-21 00:50:30",1258949,9.55,311.7,1.133,0.228,17.21,107.2038,17.72,18.82,28.29,0,110.7,13.28,18.53,273.7
"2009-09-21 00:51:00",1258950,9.45,311.7,0.599,0.132,17.26,107.2056,17.72,18.82,28.24,0,110.7,13.28,18.54,273.7
"2009-09-21 00:51:30",1258951,9.51,312.3,0.499,0.101,17.31,107.2059,17.72,18.81,28.23,0,110.7,13.28,18.54,274.3
"2009-09-21 00:52:00",1258952,8.98,312.9,1.64,0.306,17.17,107.2024,17.71,18.79,28.43,0,110.7,13.28,18.53,274.9
"2009-09-21 00:52:30",1258953,8.96,312.5,2.038,0.134,17.24,107.1877,17.68,18.78,28.32,0,110.7,13.28,18.49,274.5
"2009-09-21 00:53:00",1258954,8.77,310.9,0.913,0.091,17.23,107.1791,17.65,18.76,28.34,0,110.7,13.28,18.47,272.9
"2009-09-21 00:53:30",1258955,8.54,311,0.361,0.17,17.37,107.1794,17.66,18.74,28.17,0,110.7,13.28,18.47,273.0
"2009-09-21 00:54:00",1258956,8.4,312.7,1.327,0.089,17.24,107.1785,17.65,18.72,28.17,0,110.7,13.28,18.47,274.7
"2009-09-21 00:54:30",1258957,8.59,315.1,1.265,0.238,17.48,107.183,17.66,18.71,28.07,0,110.7,13.28,18.48,277.1
"2009-09-21 00:55:00",1258958,8.13,315,1.36,0.233,17.51,107.1794,17.66,18.69,27.64,0,110.7,13.28,18.47,277.0
"2009-09-21 00:55:30",1258959,7.866,313.6,1.202,0.295,17.51,107.1767,17.65,18.69,27.49,0,110.7,13.28,18.46,275.6
"2009-09-21 00:56:00",1258960,7.459,313.8,1.235,0.16,17.51,107.1665,17.62,18.67,27.32,0,110.7,13.28,18.44,275.8
"2009-09-21 00:56:30",1258961,7.17,313.8,0.753,0.142,17.55,107.1573,17.6,18.66,27.28,0,110.7,13.28,18.41,275.8
"2009-09-21 00:57:00",1258962,7.264,312.7,1.019,0.111,17.5,107.1564,17.6,18.66,27.32,0,110.7,13.28,18.41,274.7
"2009-09-21 00:57:30",1258963,7.327,313.2,1.028,0.073,17.42,107.161,17.61,18.64,27.35,0,110.7,13.28,18.42,275.2
"2009-09-21 00:58:00",1258964,7.393,313.7,1.193,0.172,17.42,107.1604,17.61,18.63,27.58,0,110.7,13.28,18.42,275.7
"2009-09-21 00:58:30",1258965,7.512,313.2,1.288,0.073,17.34,107.1607,17.61,18.62,27.71,0,110.7,13.28,18.42,275.2
"2009-09-21 00:59:00",1258966,7.559,313.3,0.955,0.161,17.38,107.1628,17.61,18.62,27.88,0,110.7,13.28,18.43,275.3
"2009-09-21 00:59:30",1258967,7.58,311.8,0.839,0.156,17.44,107.1631,17.61,18.61,27.78,0,110.7,13.29,18.43,273.8
"2009-09-21 01:00:00",1258968,7.432,311,1.076,0.145,17.5,107.1637,17.61,18.61,27.76,0,110.7,13.29,18.43,273.0
"2009-09-21 01:00:30",1258969,7.643,309.1,1.034,0.158,17.41,107.1632,17.61,18.59,27.78,0,110.7,13.29,18.43,271.1
"2009-09-21 01:01:00",1258970,7.554,308.5,0.884,0.168,17.39,107.1603,17.61,18.6,27.95,0,110.7,13.29,18.42,270.5
"2009-09-21 01:01:30",1258971,7.543,309.8,0.729,0.075,17.49,107.1502,17.58,18.59,27.81,0,110.7,13.29,18.39,271.8
"2009-09-21 01:02:00",1258972,7.484,309.3,1.111,0.192,17.5,107.1446,17.57,18.59,27.75,0,110.6,13.29,18.38,271.3
"2009-09-21 01:02:30",1258973,7.628,310.5,0.916,0.189,17.5,107.1389,17.55,18.6,27.75,0,110.6,13.29,18.36,272.5
"2009-09-21 01:03:00",1258974,7.21,311.8,1.283,0.236,17.57,107.1353,17.54,18.58,27.66,0,110.6,13.29,18.36,273.8
"2009-09-21 01:03:30",1258975,6.852,311.6,2.136,0.204,17.52,107.1344,17.54,18.57,27.62,0,110.6,13.29,18.35,273.6
"2009-09-21 01:04:00",1258976,7.075,312.6,2.096,0.143,17.52,107.1322,17.53,18.58,27.59,0,110.6,13.29,18.35,274.6
"2009-09-21 01:04:30",1258977,6.286,311.1,2.946,0.393,17.59,107.1308,17.53,18.58,27.54,0,110.6,13.29,18.34,273.1
"2009-09-21 01:05:00",1258978,6.816,309.2,1.182,0.269,17.54,107.1308,17.53,18.56,27.59,0,110.6,13.3,18.34,271.2
"2009-09-21 01:05:30",1258979,7.105,312.4,2.269,0.217,17.65,107.1308,17.53,18.56,27.45,0,110.6,13.3,18.34,274.4
"2009-09-21 01:06:00",1258980,6.936,312.5,2.15,0.196,17.65,107.1308,17.53,18.55,27.28,0,110.6,13.3,18.34,274.5
"2009-09-21 01:06:30",1258981,7.081,311.9,1.693,0.32,17.57,107.1308,17.53,18.56,27.21,0,110.6,13.3,18.34,273.9
"2009-09-21 01:07:00",1258982,6.633,312.1,2.142,0.278,17.4,107.1308,17.53,18.57,27.55,0,110.6,13.3,18.34,274.1
"2009-09-21 01:07:30",1258983,7.326,310.5,0.706,0.22,17.44,107.1308,17.53,18.57,27.66,0,110.6,13.3,18.34,272.5
"2009-09-21 01:08:00",1258984,7.201,314.2,1.723,0.157,17.58,107.1308,17.53,18.56,27.59,0,110.6,13.3,18.34,276.2
"2009-09-21 01:08:30",1258985,7.222,313.2,1.325,0.131,17.51,107.1308,17.53,18.57,27.36,0,110.6,13.3,18.34,275.2
"2009-09-21 01:09:00",1258986,7.112,306.1,2.556,0.202,17.28,107.1308,17.53,18.57,27.86,0,110.6,13.3,18.34,268.1
"2009-09-21 01:09:30",1258987,7.285,307.4,2.004,0.142,17.46,107.1308,17.53,18.57,28.09,0,110.6,13.3,18.34,269.4
"2009-09-21 01:10:00",1258988,7.572,309.9,1.404,0.111,17.47,107.1308,17.53,18.55,27.76,0,110.6,13.3,18.34,271.9
"2009-09-21 01:10:30",1258989,8.25,310.7,1.03,0.2,17.45,107.1308,17.53,18.56,28.02,0,110.6,13.3,18.34,272.7
"2009-09-21 01:11:00",1258990,8.13,311.3,1.845,0.298,17.43,107.1308,17.53,18.55,28.05,0,110.6,13.3,18.34,273.3
"2009-09-21 01:11:30",1258991,7.928,308.1,0.813,0.243,17.41,107.1308,17.53,18.57,28.13,0,110.6,13.3,18.34,270.1
"2009-09-21 01:12:00",1258992,8.24,307.6,0.933,0.089,17.38,107.1308,17.53,18.57,28.33,0,110.6,13.3,18.34,269.6
"2009-09-21 01:12:30",1258993,8.44,304.5,2.012,0.271,17.27,107.1308,17.53,18.56,28.68,0,110.6,13.29,18.34,266.5
"2009-09-21 01:13:00",1258994,8.53,302.9,1.866,0.185,17.36,107.1308,17.53,18.54,28.85,0,110.6,13.29,18.34,264.9
"2009-09-21 01:13:30",1258995,8.58,302.1,0.653,0.21,17.35,107.1308,17.53,18.55,28.88,0,110.6,13.29,18.34,264.1
"2009-09-21 01:14:00",1258996,8.36,303.9,1.443,0.154,17.39,107.1308,17.53,18.56,28.85,0,110.6,13.29,18.34,265.9
"2009-09-21 01:14:30",1258997,8.2,308.2,2.252,0.208,17.41,107.1308,17.53,18.55,28.76,0,110.6,13.29,18.34,270.2
"2009-09-21 01:15:00",1258998,8.31,304.9,1.347,0.182,17.37,107.1243,17.51,18.53,28.83,0,110.6,13.29,18.33,266.9
"2009-09-21 01:15:30",1258999,8.2,305.4,0.669,0.161,17.34,107.1192,17.5,18.53,28.89,0,110.6,13.29,18.31,267.4
"2009-09-21 01:16:00",1259000,8.19,306.2,1.471,0.135,17.41,107.1029,17.46,18.53,28.84,0,110.6,13.29,18.27,268.2
"2009-09-21 01:16:30",1259001,8.05,306.7,1.594,0.082,17.46,107.097,17.44,18.52,28.75,0,110.6,13.29,18.26,268.7
"2009-09-21 01:17:00",1259002,8.53,302.8,0.884,0.178,17.4,107.097,17.44,18.51,28.87,0,110.6,13.29,18.26,264.8
"2009-09-21 01:17:30",1259003,8.31,304,0.964,0.248,17.37,107.097,17.44,18.5,28.92,0,110.6,13.3,18.26,266.0
"2009-09-21 01:18:00",1259004,7.779,302.4,0.539,0.09,17.36,107.097,17.44,18.51,28.87,0,110.6,13.3,18.26,264.4
"2009-09-21 01:18:30",1259005,8.2,301.3,0.782,0.278,17.44,107.097,17.44,18.5,28.91,0,110.6,13.3,18.26,263.3
"2009-09-21 01:19:00",1259006,8.44,302.7,0.581,0.1,17.5,107.0888,17.42,18.47,28.97,0,110.6,13.3,18.24,264.7
"2009-09-21 01:19:30",1259007,8.69,302.7,0.721,0.071,17.33,107.0742,17.39,18.46,29.15,0,110.6,13.3,18.20,264.7
"2009-09-21 01:20:00",1259008,8.42,301.8,1.407,0.237,17.5,107.0643,17.36,18.45,28.91,0,110.6,13.3,18.17,263.8
"2009-09-21 01:20:30",1259009,8.79,301.2,1.015,0.119,17.54,107.0632,17.36,18.46,28.92,0,110.6,13.3,18.17,263.2
"2009-09-21 01:21:00",1259010,8.63,300.8,0.788,0.069,17.43,107.0632,17.36,18.45,29.05,0,110.6,13.3,18.17,262.8
"2009-09-21 01:21:30",1259011,8.56,300.9,0.702,0.082,17.37,107.0632,17.36,18.43,29.14,0,110.6,13.3,18.17,262.9
"2009-09-21 01:22:00",1259012,8.5,302.4,0.717,0.066,17.5,107.0644,17.36,18.41,29.17,0,110.6,13.3,18.17,264.4
"2009-09-21 01:22:30",1259013,8.25,303.8,1.037,0.116,17.46,107.0659,17.36,18.41,29.18,0,110.6,13.3,18.18,265.8
"2009-09-21 01:23:00",1259014,8.05,306.9,0.598,0.094,17.41,107.0671,17.37,18.41,29.09,0,110.6,13.3,18.18,268.9
"2009-09-21 01:23:30",1259015,7.976,307.4,0.477,0.096,17.37,107.0659,17.36,18.41,29.14,0,110.6,13.3,18.18,269.4
"2009-09-21 01:24:00",1259016,7.979,307.3,1.325,0.097,17.37,107.06,17.35,18.39,29.21,0,110.6,13.3,18.16,269.3
"2009-09-21 01:24:30",1259017,8.13,305.6,1.137,0.107,17.31,107.0499,17.32,18.4,29.38,0,110.6,13.3,18.14,267.6
"2009-09-21 01:25:00",1259018,8.04,305.2,0.644,0.051,17.35,107.0434,17.31,18.38,29.43,0,110.6,13.3,18.12,267.2
"2009-09-21 01:25:30",1259019,8.14,305.4,0.531,0.115,17.29,107.0409,17.3,18.38,29.51,0,110.6,13.3,18.11,267.4
"2009-09-21 01:26:00",1259020,8.57,306,1.079,0.175,17.36,107.0436,17.31,18.37,29.56,0,110.6,13.3,18.12,268.0
"2009-09-21 01:26:30",1259021,8.39,305.3,1.597,0.104,17.33,107.0439,17.31,18.36,29.65,0,110.6,13.31,18.12,267.3
"2009-09-21 01:27:00",1259022,8.51,307.5,1.062,0.099,17.29,107.0478,17.32,18.35,29.67,0,110.6,13.31,18.13,269.5
"2009-09-21 01:27:30",1259023,8.47,307.8,1.145,0.117,17.28,107.0499,17.32,18.35,29.68,0,110.6,13.31,18.14,269.8
"2009-09-21 01:28:00",1259024,8.66,308,1.105,0.164,17.32,107.0544,17.33,18.34,29.7,0,110.6,13.31,18.15,270.0
"2009-09-21 01:28:30",1259025,8.13,305.6,1.429,0.115,17.29,107.0513,17.33,18.34,29.77,0,110.6,13.31,18.14,267.6
"2009-09-21 01:29:00",1259026,8.58,304,1.274,0.243,17.33,107.0513,17.33,18.33,29.78,0,110.6,13.3,18.14,266.0
"2009-09-21 01:29:30",1259027,9.05,304.6,1.305,0.526,17.35,107.0421,17.3,18.32,29.8,0,110.6,13.3,18.12,266.6
"2009-09-21 01:30:00",1259028,9.87,306.9,1.47,0.345,17.47,107.0292,17.27,18.32,29.66,0,110.6,13.3,18.08,268.9
"2009-09-21 01:30:30",1259029,9.85,304.3,1.616,0.257,17.42,107.0291,17.27,18.3,29.59,0,110.6,13.3,18.08,266.3
"2009-09-21 01:31:00",1259030,9.42,306.1,2.496,0.439,17.48,107.0291,17.27,18.29,29.61,0,110.6,13.3,18.08,268.1
"2009-09-21 01:31:30",1259031,9.7,306.4,2.317,0.272,17.35,107.0288,17.27,18.3,29.63,0,110.6,13.3,18.08,268.4
"2009-09-21 01:32:00",1259032,10.2,304.3,1.304,0.141,17.47,107.0306,17.27,18.3,29.7,0,110.6,13.3,18.09,266.3
"2009-09-21 01:32:30",1259033,10.25,303.2,1.044,0.295,17.4,107.0312,17.28,18.28,29.71,0,110.6,13.3,18.09,265.2
"2009-09-21 01:33:00",1259034,10.36,304.8,1.697,0.303,17.43,107.0309,17.27,18.28,29.71,0,110.6,13.3,18.09,266.8
"2009-09-21 01:33:30",1259035,10.36,302.9,1.62,0.246,17.42,107.0298,17.27,18.25,29.69,0,110.6,13.3,18.08,264.9
"2009-09-21 01:34:00",1259036,10.3,302.4,1.111,0.243,17.43,107.0191,17.24,18.26,29.7,0,110.6,13.3,18.06,264.4
"2009-09-21 01:34:30",1259037,10.45,302.9,1.321,0.162,17.44,107.0132,17.23,18.25,29.68,0,110.6,13.31,18.04,264.9
"2009-09-21 01:35:00",1259038,10.89,303.3,2.215,0.277,17.43,107.0098,17.22,18.25,29.62,0,110.6,13.31,18.03,265.3
"2009-09-21 01:35:30",1259039,11.19,301.4,1.646,0.335,17.34,107.0011,17.2,18.24,29.77,0,110.6,13.31,18.01,263.4
"2009-09-21 01:36:00",1259040,11.11,302.5,1.161,0.277,17.47,106.9985,17.19,18.23,29.66,0,110.6,13.31,18.00,264.5
"2009-09-21 01:36:30",1259041,11.73,301.7,0.893,0.178,17.38,106.998,17.19,18.23,29.75,0,110.6,13.31,18.00,263.7
"2009-09-21 01:37:00",1259042,11.56,300.6,1.048,0.243,17.39,106.998,17.19,18.23,29.77,0,110.6,13.31,18.00,262.6
"2009-09-21 01:37:30",1259043,11.79,302.8,1.122,0.217,17.4,106.998,17.19,18.21,29.72,0,110.6,13.31,18.00,264.8
"2009-09-21 01:38:00",1259044,10.99,304.5,1.674,0.341,17.46,106.998,17.19,18.2,29.68,0,110.6,13.32,18.00,266.5
"2009-09-21 01:38:30",1259045,11.05,305.2,1.575,0.226,17.51,106.998,17.19,18.2,29.5,0,110.6,13.31,18.00,267.2
"2009-09-21 01:39:00",1259046,10.95,302.3,1.135,0.296,17.49,106.998,17.19,18.19,29.54,0,110.6,13.31,18.00,264.3
"2009-09-21 01:39:30",1259047,10.97,301.5,0.846,0.155,17.51,106.998,17.19,18.19,29.52,0,110.6,13.32,18.00,263.5
"2009-09-21 01:40:00",1259048,11.13,304.6,1.58,0.246,17.48,106.998,17.19,18.19,29.54,0,110.6,13.32,18.00,266.6
"2009-09-21 01:40:30",1259049,10.76,303.3,0.964,0.513,17.48,106.998,17.19,18.18,29.47,0,110.6,13.32,18.00,265.3
"2009-09-21 01:41:00",1259050,10.56,301.4,1.461,0.707,17.48,106.998,17.19,18.17,29.37,0,110.6,13.32,18.00,263.4
"2009-09-21 01:41:30",1259051,10.79,302.2,1.624,0.303,17.47,106.998,17.19,18.17,29.44,0,110.6,13.32,18.00,264.2
"2009-09-21 01:42:00",1259052,10.7,301.5,1.705,0.241,17.46,106.998,17.19,18.18,29.41,0,110.6,13.32,18.00,263.5
"2009-09-21 01:42:30",1259053,10.14,304.4,0.981,0.472,17.52,106.998,17.19,18.19,29.38,0,110.6,13.32,18.00,266.4
"2009-09-21 01:43:00",1259054,10.38,301,1.751,0.341,17.47,106.998,17.19,18.19,29.39,0,110.6,13.32,18.00,263.0
"2009-09-21 01:43:30",1259055,9.88,303.7,1.079,0.204,17.5,106.998,17.19,18.18,29.35,0,110.6,13.32,18.00,265.7
"2009-09-21 01:44:00",1259056,10.65,302.9,1.867,0.265,17.41,106.998,17.19,18.2,29.34,0,110.6,13.32,18.00,264.9
"2009-09-21 01:44:30",1259057,10.09,306.8,3.562,0.247,17.53,106.998,17.19,18.2,29.32,0,110.6,13.32,18.00,268.8
"2009-09-21 01:45:00",1259058,9.15,308.2,2.964,0.491,17.55,106.998,17.19,18.19,29.19,0,110.6,13.32,18.00,270.2
"2009-09-21 01:45:30",1259059,10.23,303.7,3.109,0.393,17.46,106.998,17.19,18.2,29.21,0,110.6,13.32,18.00,265.7
"2009-09-21 01:46:00",1259060,10.33,302.4,1.858,0.326,17.46,106.998,17.19,18.19,29.26,0,110.6,13.31,18.00,264.4
"2009-09-21 01:46:30",1259061,10.23,302,2.117,0.273,17.43,106.998,17.19,18.21,29.26,0,110.6,13.31,18.00,264.0
"2009-09-21 01:47:00",1259062,9.99,304.1,1.166,0.136,17.48,106.998,17.19,18.2,29.33,0,110.6,13.31,18.00,266.1
"2009-09-21 01:47:30",1259063,10.15,302.4,0.796,0.15,17.48,106.998,17.19,18.22,29.26,0,110.6,13.31,18.00,264.4